User: anonymous   Login
Location: Unspecified
(0.0000°N, 0.0000°E)
Time: 11:01:53
(UTC+00:00)
Language:

AMOS 1 - Orbit

View from above orbital plane
View from above orbital plane
View from above satellite
View from above satellite

Ground track
Ground track

The orbit data is extracted from the following two-line orbital elements,

1 23865U 96030B   14294.65884140 -.00000137  00000-0  00000+0 0  1777
2 23865 005.3082 061.2062 0012736 098.6124 290.5599 00.97118235 67233
Epoch (UTC): 21 October 2014 15:48:43
Eccentricity: 0.0012736
inclination: 5.3082°
perigee height: 36639 km
apogee height: 36749 km
right ascension of ascending node: 61.2062°
argument of perigee: 98.6124°
revolutions per day: 0.97118235
mean anomaly at epoch: 290.5599°
orbit number at epoch: 6723

The dashed part of the orbit path shows where the satellite is in the earth's shadow,  

DLR